Change the Weather History Date:

Thursday, January 3, 2013

  Actual Average Record
Temperature  
Mean Temperature 14 °F 27 °F  
Max Temperature 23 °F 32 °F 51 °F (1963)
Min Temperature 4 °F 23 °F -1 °F (1993)
Degree Days  
Heating Degree Days 51 38  
Month to date heating degree days 147 114  
Since 1 July heating degree days 2810 2634  
Cooling Degree Days 0 0  
Month to date cooling degree days 0 0  
Year to date cooling degree days 0 0  
Moisture  
Dew Point 18 °F    
Average Humidity 77    
Maximum Humidity 81    
Minimum Humidity 72    
Precipitation  
Precipitation 0.00 in 0.04 in 0.37 in (1966)
Month to date precipitation T 0.11  
Year to date precipitation T 0.11  
Snow  
Snow 0.00 in - - ()
Month to date snowfall T  
Snow Depth 6.00 in    
Sea Level Pressure  
Sea Level Pressure 30.45 in    
Wind  
Wind Speed 2 mph (West)    
Max Wind Speed 6 mph    
Max Gust Speed -    
Visibility 10 miles    
Events Snow    
T = Trace of Precipitation, MM = Missing Value Source: NWS Daily Summary

Daily Weather History Graph

Daily Weather History Graph

Search for Another Location

Airport or City:

Trip Planner

Search our weather history database for the weather conditions in past years. The results will help you decide how hot, cold, wet, or windy it might be!

Date:

Astronomy

Jan. 03, 2013 Rise Set
Actual Time 7:48 AM PST 4:23 PM PST
Civil Twilight 7:12 AM PST 4:58 PM PST
Nautical Twilight 6:33 AM PST 5:37 PM PST
Astronomical Twilight 5:56 AM PST 6:14 PM PST
Moon 11:34 PM PST (1/3) 10:34 AM PST (1/3)
Length of Visible Light 9h 46m
Length of Day
8h 35m
Waning Gibbous, 64% of the Moon is Illuminated
Jan 3
Waning Gibbous
Jan 4
Last Quarter
Jan 11
New
Jan 18
First Quarter
Jan 26
Full

Hourly Weather History & Observations

Time (PST) Temp. Windchill Dew Point Humidity Pressure Visibility Wind Dir Wind Speed Gust Speed Precip Events Conditions
12:55 AM 24.1 °F 19.7 °F 18.0 °F 77% 30.53 in 10.0 mi West 3.5 mph - N/A   Overcast
1:55 AM 24.1 °F - 19.0 °F 81% 30.53 in 10.0 mi Calm Calm - N/A   Overcast
2:55 AM 24.1 °F 19.7 °F 18.0 °F 77% 30.52 in 10.0 mi WNW 3.5 mph - N/A   Overcast
3:55 AM 24.1 °F - 18.0 °F 77% 30.51 in 10.0 mi Calm Calm - N/A   Overcast
4:55 AM 23.0 °F - 18.0 °F 81% 30.49 in 10.0 mi Calm Calm - N/A   Overcast
5:55 AM 23.0 °F - 17.1 °F 78% 30.48 in 10.0 mi Calm Calm - N/A   Overcast
6:55 AM 23.0 °F 18.4 °F 17.1 °F 78% 30.48 in 7.0 mi WSW 3.5 mph - 0.00 in Snow Light Snow
7:55 AM 23.0 °F - 17.1 °F 78% 30.48 in 10.0 mi Calm Calm - 0.00 in   Overcast
8:55 AM 23.0 °F 17.0 °F 16.0 °F 74% 30.48 in 10.0 mi West 4.6 mph - N/A   Overcast
9:55 AM 23.0 °F - 17.1 °F 78% 30.49 in 10.0 mi Calm Calm - N/A   Overcast
10:55 AM 24.1 °F 19.7 °F 17.1 °F 75% 30.48 in 10.0 mi WNW 3.5 mph - N/A   Overcast
11:55 AM 24.1 °F 17.0 °F 17.1 °F 75% 30.44 in 10.0 mi SW 5.8 mph - N/A   Overcast
12:55 PM 25.0 °F 20.7 °F 17.1 °F 72% 30.43 in 10.0 mi SW 3.5 mph - N/A   Overcast
1:55 PM 25.0 °F - 17.1 °F 72% 30.40 in 10.0 mi Calm Calm - N/A   Overcast
2:55 PM 25.0 °F 18.1 °F 17.1 °F 72% 30.40 in 10.0 mi WNW 5.8 mph - N/A   Overcast
3:55 PM 25.0 °F - 17.1 °F 72% 30.41 in 10.0 mi Calm Calm - N/A   Overcast
4:55 PM 24.1 °F - 18.0 °F 77% 30.41 in 10.0 mi Calm Calm - N/A   Overcast
5:55 PM 24.1 °F - 19.0 °F 81% 30.40 in 10.0 mi Calm Calm - N/A   Overcast
6:55 PM 23.0 °F - 18.0 °F 81% 30.39 in 10.0 mi Calm Calm - N/A   Overcast
7:55 PM 24.1 °F - 18.0 °F 77% 30.40 in 10.0 mi Calm Calm - N/A   Overcast
8:55 PM 24.1 °F - 18.0 °F 77% 30.40 in 10.0 mi Calm Calm - N/A   Overcast
9:55 PM 24.1 °F - 18.0 °F 77% 30.40 in 10.0 mi Calm Calm - N/A   Overcast
10:55 PM 23.0 °F - 18.0 °F 81% 30.40 in 10.0 mi Calm Calm - N/A   Overcast
11:55 PM 24.1 °F - 18.0 °F 77% 30.41 in 10.0 mi Calm Calm - N/A   Overcast